Starlink 2657

operational
NORAD ID: 48655 Int'l Des: 2021-044 Owner: SPXS Country: US Constellation: starlink
LEOCIRCULAR

About Starlink 2657

Description loading...

Live Position

Loading 3D Globe...

Upcoming Passes

Altitude History

Altitude vs Time

uPlot chart will show altitude changes over time

Two-Line Element Set

1 48655U 21044T 26066.14404914 .00005133 00000-0 18539-3 0 9997
2 48655 53.1608 125.7894 0001228 87.0591 273.0550 15.30184896263437
Epoch: Mar 7, 2026 • Age: 15 hours

Current Status

Altitude 488.7 km
Velocity 7.62 km/s
Sub-Earth Point -38.97°S, 56.39°W
Launch Date May 26, 2021
Age 4.7 years
Type internet

Technical Details

Classification Payload
Mass 260.00 kg
Dry Mass 248.00 kg
Total Mass 260.00 kg
Length 0.20 m
Diameter 2.80 m
Span 9.00 m
Shape Box + pan
Manufacturer SPXS
Bus Type Starlink
Phase Status In Orbit
Owner/State SPXS/US

Large Constellations

Loading constellations...